User: anonymous   Login
Location: Unspecified
(0.0000°N, 0.0000°E)
Time: 08:19:21
(UTC+02:00)
Language:

Atlas Centaur 2 - Orbit

View from above orbital plane
View from above orbital plane
View from above satellite
View from above satellite

Ground track
Ground track

The orbit data is extracted from the following two-line orbital elements,

1 00694U 63047A   15213.78797605  .00001731  00000-0  21433-3 0  9998
2 00694 030.3599 333.5123 0591642 208.6571 287.2490 14.01148660586479
Epoch (UTC): 01 August 2015 18:54:41
Eccentricity: 0.0591642
inclination: 30.3599°
perigee height: 460 km
apogee height: 1320 km
right ascension of ascending node: 333.5123°
argument of perigee: 208.6571°
revolutions per day: 14.01148660
mean anomaly at epoch: 287.2490°
orbit number at epoch: 58647

The dashed part of the orbit path shows where the satellite is in the earth's shadow,  

DLR